EW8555 Weather Reports


time (UTC)temp
C
wind
direction
speed
KPH
gust
KPH
rain 1hr
cm
rain 24hr
cm
rain mn
cm
humidity
%
barometer
mb
20260505191523 16 67 4.8 11.3 0.03 0.05 0.05 83 1004.8
20260505190024 16 5 4.8 11.3 0.00 0.03 0.03 82 1004.7
20260505184624 16 36 4.8 9.7 0.00 0.03 0.03 81 1004.7
20260505183020 16 44 6.4 14.5 0.00 0.03 0.03 80 1004.7
20260505181520 17 39 4.8 11.3 0.00 0.03 0.03 80 1004.7
20260505180019 17 44 8.0 19.3 0.00 0.03 0.03 78 1004.6
20260505174520 17 30 8.0 19.3 0.00 0.03 0.03 76 1004.5
20260505173017 18 5 6.4 14.5 0.00 0.03 0.03 73 1004.6
20260505171521 18 16 4.8 8.0 0.00 0.03 0.03 70 1004.5
20260505170018 18 11 3.2 8.0 0.00 0.03 0.03 70 1004.7
20260505164514 18 63 3.2 9.7 0.00 0.03 0.03 69 1004.8
20260505163012 18 5 6.4 12.9 0.00 0.03 0.03 69 1004.8
20260505161510 18 9 3.2 6.4 0.00 0.03 0.03 71 1005.0
20260505153006 18 48 1.6 8.0 0.00 0.03 0.03 72 1005.4
20260505151505 18 45 3.2 8.0 0.00 0.03 0.03 72 1005.4
20260505130109 18 53 1.6 6.4 0.00 0.03 0.03 77 1006.1
20260505124556 18 86 3.2 9.7 0.00 0.03 0.03 78 1006.4
20260505123047 17 167 3.2 6.4 0.00 0.03 0.03 82 1006.5
20260505121547 17 62 0.0 6.4 0.00 0.03 0.03 86 1006.6
20260505120039 16 165 1.6 8.0 0.00 0.03 0.03 88 1006.7
20260505114537 16 142 1.6 4.8 0.00 0.03 0.03 88 1006.8
20260505113036 16 147 1.6 3.2 0.00 0.03 0.03 89 1006.9
20260505111539 16 147 0.0 4.8 0.00 0.03 0.03 88 1007.0
20260505101533 16 121 1.6 4.8 0.03 0.03 0.03 87 1007.1
20260505100032 15 213 0.0 1.6 0.03 0.03 0.03 87 1007.2
20260505094534 15 213 1.6 4.8 0.00 0.00 0.00 86 1007.2
20260505093029 15 330 1.6 3.2 0.00 0.00 0.00 85 1007.1
20260505091529 15 329 0.0 3.2 0.00 0.00 0.00 85 1007.1
20260505090030 15 329 0.0 1.6 0.00 0.00 0.00 85 1007.2
20260505084527 15 329 1.6 3.2 0.00 0.00 0.00 86 1007.3
20260505083025 15 329 0.0 3.2 0.00 0.00 0.00 86 1007.3
20260505081539 15 329 1.6 4.8 0.00 0.00 0.00 87 1007.3
20260505080023 14 329 1.6 3.2 0.00 0.00 0.00 88 1007.5
20260505074522 14 329 0.0 4.8 0.00 0.00 0.00 89 1007.5
20260505073025 13 98 0.0 4.8 0.00 0.00 0.00 90 1007.5
20260505071542 13 98 0.0 3.2 0.00 0.00 0.00 90 1007.5
20260505070020 13 97 3.2 6.4 0.00 0.00 0.00 89 1007.6
20260505064524 13 95 3.2 11.3 0.00 0.00 0.00 89 1007.5
20260505063019 13 96 3.2 6.4 0.00 0.00 0.00 89 1007.5
20260505061519 13 96 1.6 4.8 0.00 0.00 0.00 89 1007.6
20260505060019 13 338 0.0 0.0 0.00 0.00 0.00 88 1007.6
20260505054517 13 338 1.6 3.2 0.00 0.00 0.00 88 1007.7
20260505053024 13 338 0.0 1.6 0.00 0.00 0.00 88 1007.7
20260505051529 13 338 0.0 1.6 0.00 0.00 0.00 88 1007.7
20260505041516 13 338 0.0 3.2 0.00 0.00 0.00 86 1007.7
20260505040011 13 338 1.6 4.8 0.00 0.00 0.00 85 1007.6
20260505034509 13 338 0.0 0.0 0.00 0.00 0.00 85 1007.7
20260505033011 13 338 0.0 1.6 0.00 0.00 0.00 85 1007.8
20260505031507 13 338 1.6 3.2 0.00 0.00 0.00 85 1007.8
20260505030018 13 338 0.0 3.2 0.00 0.00 0.00 85 1008.0
20260505024503 13 338 1.6 4.8 0.00 0.00 0.00 84 1008.1
20260505023002 13 338 0.0 3.2 0.00 0.00 0.00 84 1008.2
20260505021502 13 338 1.6 6.4 0.00 0.00 0.00 84 1008.2
20260505020105 13 338 3.2 4.8 0.00 0.00 0.00 83 1008.3
20260505014600 14 288 1.6 4.8 0.00 0.00 0.00 83 1008.4
20260505013058 14 288 1.6 4.8 0.00 0.00 0.00 82 1008.5
20260505011558 14 288 1.6 8.0 0.00 0.00 0.00 82 1008.6
20260505010103 14 278 8.0 14.5 0.00 0.00 0.00 83 1008.7
20260505004554 13 325 0.0 0.0 0.00 0.00 0.00 84 1008.5
20260505003056 13 325 0.0 0.0 0.00 0.00 0.00 83 1008.6
20260505001552 13 325 0.0 0.0 0.00 0.00 0.00 83 1008.8
20260505000058 13 325 0.0 0.0 0.00 0.00 0.00 83 1009.1
20260504234548 13 325 0.0 0.0 0.00 0.00 0.00 82 1008.9
20260504233049 14 325 0.0 0.0 0.00 0.00 0.00 81 1009.0
20260504231543 14 325 0.0 0.0 0.00 0.00 0.00 80 1009.3
20260504230042 14 325 0.0 0.0 0.00 0.00 0.00 80 1009.4
20260504224641 14 325 0.0 0.0 0.00 0.00 0.00 79 1009.6
20260504223037 15 325 0.0 0.0 0.00 0.00 0.00 76 1009.5
20260504221536 16 325 0.0 0.0 0.00 0.00 0.00 74 1009.4
20260504220032 16 325 0.0 0.0 0.00 0.00 0.00 74 1009.6
20260504214530 16 325 0.0 0.0 0.00 0.00 0.00 74 1009.5
20260504213030 16 325 0.0 0.0 0.00 0.00 0.00 72 1009.6
20260504211529 16 325 0.0 0.0 0.00 0.00 0.00 71 1009.6
20260504210030 17 325 0.0 0.0 0.00 0.00 0.00 71 1009.5
20260504204529 17 325 0.0 0.0 0.00 0.00 0.00 70 1009.7
20260504203025 17 325 0.0 0.0 0.00 0.00 0.00 68 1009.7
20260504201523 17 325 0.0 0.0 0.00 0.00 0.00 67 1009.7
20260504200036 18 325 0.0 0.0 0.00 0.00 0.00 65 1009.6
20260504194523 18 325 0.0 0.0 0.00 0.00 0.00 65 1009.6
20260504193022 18 325 0.0 0.0 0.00 0.00 0.00 63 1009.5